Location: Düngen
(52.0952°N, 10.0219°E)
Time: 16:11:27
(UTC+00:00)

Meteor 1-10 Rocket - Pass Details

Date: 11 March 2026
Orbit: 835 x 908 km, 81.3° (Epoch: 14 April)

Event Time Altitude Azimuth Distance (km) Brightness Sun altitude
Rises 17:46:02 0° 347° (NNW) 3,405 7.5 -5.2°
Reaches altitude 10° 17:48:27 10° 349° (N) 2,471 6.8 -5.6°
Maximum altitude 17:54:04 79° 76° (ENE) 871 4.2 -6.5°
Drops below altitude 10° 17:59:44 10° 164° (SSE) 2,494 6.5 -7.3°
Sets 18:02:10 0° 165° (SSE) 3,437 7.2 -7.7°
